Weather in Nizhniy Tagil

Russia / Sverdlovsk Oblast     57°54′27″N   59°58′19″E
temp.,
°C
wind,
m/s
gust,
m/s
humid.,
%
clouds,
%
prec.,
mm/h
press.,
hPa
HPBL,
m
24 january, mon
mon2423:00−13wsw2394100 0.0 103640
02:00−13sw2195100 0.0 103627
05:00−10sw2492100 0.0 103683
08:00−9sw2590100 0.0 1035110
11:00−8wsw2992100 0.1 1034323
14:00−6wsw31089100 0.1 1034590
17:00−8wsw369157 0.1 1033137
20:00−11wsw389587 0.0 1033186
25 january, tue
tue2523:00−11wsw4119175 0.0 1032343
02:00−10wsw4149096 0.0 1031506
05:00−9wsw51588100 0.1 1029612
08:00−9wsw61784100 0.0 1027620
11:00−8wsw61782100 0.0 1027625
14:00−7w5148199 0.0 1026541
17:00−8w51481100 0.0 1026491
20:00−11wsw4148798 0.0 1026385
26 january, wed
wed2623:00−12wsw4108733 0.0 1026279
02:00−13wsw398899 0.0 1026218
05:00−14wsw310875 0.0 1026215
08:00−17sw25935 0.0 102678
11:00−15ssw2691100 0.0 1026119
14:00−9sw368593 0.0 1024321
17:00−12s2296100 0.0 102518
20:00−17ssw2299100 0.0 102418
27 january, thu
thu2723:00−18ssw119996 0.0 102311
02:00−15ssw119892 0.0 102219
05:00−14s229696 0.0 102033
08:00−9ssw389167 0.0 1020184
11:00−8sw4118987 0.0 1020626
14:00−7sw41086100 0.0 1020698
17:00−8sw379023 0.0 1022161
20:00−10sw3894100 0.0 1023152
28 january, fri
fri2823:00−12ssw259674 0.0 102362
02:00−16sw229964 0.0 102321
05:00−17sw229965 0.0 102423
08:00−19ssw1110084 0.0 102410
11:00−13ssw129677 0.0 102360
14:00−8ssw139066 0.0 1022199
17:00−11e009880 0.0 102210
20:00−15sse0110094 0.0 10229